Location: Niedergestelen
(46.3129°N, 7.7822°E)
Time: 04:29:17
(UTC+00:00)

Lacrosse 5 rocket - Pass Details

Date: 01 December 2020
Orbit: 461 x 634 km, 57.0° (Epoch: 18 January)

Event Time Altitude Azimuth Distance (km) Brightness Sun altitude
Rises 16:42:09 0° 243° (WSW) 2,536 7.0 -9.8°
Reaches altitude 10° 16:44:22 10° 249° (WSW) 1,640 5.4 -10.1°
Maximum altitude 16:47:56 50° 326° (NW) 598 1.6 -10.7°
Enters shadow 16:50:53 14° 41° (NE) 1,391 2.9 -11.2°
